www.pogodaiklimat.ru

Погода и климат >> Архив погоды >> Россия >> Ямало-Ненецкий АО >> Марресаля


АРХИВ ПОГОДЫ в Марресале

Время (UTC), дата Ветер
(напр.,м/с)
 
Видим.   Явления Облачность Т
(С)
Тd
(С)
f
(%)
Тe
(С)
Тes
(С)
Комфортность P
(гПа)
Po
(гПа)
Тmin
(С)
Tmax
(С)
R
(мм)
R24
(мм)
S
(см)
06 15.04 СВ 11-13
{14}
1000 м метель {ливн. осадки} 9/9 720 м
[Sc]
-14.2 -14.7 96 -26 -26 1003.7 1000.3 -14.2
09 15.04 СВ 10-12
{14}
1000 м метель 9/9 660 м
[Sc]
-13.9 -14.5 95 -26 -26 1005.4 1002.0
12 15.04 СВ 11-13
{13}
1000 м слаб. ливневой снег {метель} 10/10 540 м
[Cb cap]
-12.9 -13.5 95 -25 -25 1007.2 1003.8
15 15.04 СВ 12-15
{15}
500 м сильная метель {ливн. осадки} 10/6 570 м
[Sc Ac trans]
-15.6 -16.3 94 -29 -29 1008.9 1005.5 -12.3 0.4
18 15.04 СВ 13-16
{17}
500 м слаб. ливневой снег {метель} 10/10 400 м
[Cb cap]
-15.8 -16.4 95 -29 -29 1011.3 1007.9
21 15.04 С 13-15
{17}
500 м слаб. ливневой снег {метель} 10/10 300 м
[Cb cap]
-20.0 -21.0 92 -35 -35 опасность
обморожения
1014.8 1011.3
00 16.04 С 11-13
{16}
1000 м метель {ливн. осадки} 3/0
[Ci fib]
-22.4 -23.7 89 -37 -37 опасность
обморожения
1018.0 1014.5
03 16.04 С 10-12
{13}
1000 м метель ясно -22.7 -24.0 89 -37 -37 опасность
обморожения
1020.9 1017.4 -23.1 0.5 38
06 16.04 С 10-12
{13}
1000 м метель ясно -20.3 -21.6 89 -34 -34 опасность
обморожения
1023.0 1019.5
09 16.04 С 9-11
{12}
2000 м сильный позёмок ясно -18.5 -19.7 90 -31 -30 опасность
обморожения
1025.5 1022.0
12 16.04 С 8-11
{11}
20 км сильный позёмок 3/3 600 м
[Cb cap]
-16.7 -18.1 89 -28 -28 1027.2 1023.7
15 16.04 С 9-11
{11}
20 км сильный позёмок 4/4 600 м
[Cb cap]
-17.3 -18.2 93 -29 -29 1028.0 1024.5 -16.6
18 16.04 С 7
{12}
20 км позёмок 3/3 600 м
[Sc]
-19.3 -20.2 93 -31 -31 опасность
обморожения
1028.2 1024.7
21 16.04 С 4 20 км позёмок 3/3 600 м
[Sc Ci fib]
-20.8 -21.7 92 -30 -30 1028.0 1024.5
00 17.04 штиль 0 20 км {метель} 8/8 300 м
[Cb cap]
-17.5 -18.3 93 -18 -18 1026.7 1023.3
03 17.04 ЮЗ 3 20 км 10/0
[Ac trans Cs]
-16.5 -17.2 94 -23 -22 1024.4 1021.0 -21.3 37
06 17.04 Ю 7 2000 м слаб. ливневой снег {метель} 10/10 600 м
[Cb cap]
-13.6 -14.1 96 -23 -23 1021.1 1017.7
09 17.04 Ю 10-11
{12}
2000 м слаб. ливневой снег {метель} 10/10 500 м
[Cb cap]
-10.8 -11.1 98 -22 -22 1017.3 1013.9
12 17.04 Ю 12-15
{16}
500 м слаб. ливневой снег {метель} 10/10 360 м
[Cb cap]
-11.2 -11.4 98 -23 -23 1013.4 1010.0
15 17.04 Ю 8
{16}
500 м ливневой снег {метель} 10/10 300 м
[Cb cap]
-9.1 -9.1 100 -19 -19 1009.0 1005.7 -9.1 1
18 17.04 ЮВ 5
{10}
2000 м слаб. ливневой снег {метель} 10/10 500 м
[Cb cap]
-7.5 -7.5 100 -15 -15 1007.4 1004.1
21 17.04 ЮВ 8 2000 м слаб. ливневой снег {метель} 10/10 450 м
[Cb cap]
-8.2 -8.2 100 -18 -18 1007.1 1003.8
00 18.04 ЮВ 7 2000 м слаб. ливневой снег {метель} 10/10 400 м
[Cb cap]
-8.5 -8.5 100 -18 -18 1007.0 1003.7
03 18.04 ЮВ 6 2000 м слаб. ливневой снег {метель} 10/10 570 м
[Cb cap]
-8.0 -8.0 100 -16 -16 1006.9 1003.6 -9.1 0.4 37
06 18.04 ЮВ 5 2000 м слаб. ливневой снег {метель} 10/10 570 м
[Cb cap]
-7.1 -7.3 98 -15 -15 1007.1 1003.8
09 18.04 Ю 2 2000 м слаб. ливневой снег {метель} 10/10 630 м
[Cb cap]
-4.6 -4.9 98 -9 -9 1007.7 1004.4
12 18.04 ЮЗ 4 4000 м дымка {ливн. осадки} 10/3 600 м
[Sc Ac und]
-3.5 -3.5 100 -10 -10 1007.8 1004.5
15 18.04 ЮЗ 5 4000 м позёмок 10/10 400 м
[Cb cap]
-2.4 -2.4 100 -9 -9 1005.6 1002.4 -2.4 0.0
18 18.04 СЗ 6 4000 м позёмок 10/10 480 м
[Sc]
-3.7 -3.7 100 -11 -11 1005.1 1001.9
21 18.04 СЗ 8-11
{11}
4000 м позёмок 9/9 1470 м
[Sc]
-6.0 -6.2 98 -15 -15 1005.8 1002.5
00 19.04 СЗ 9-12
{14}
2000 м метель 10/10 500 м
[Cb cap]
-6.8 -6.8 100 -17 -17 1006.8 1003.5
03 19.04 СЗ 9-12
{15}
2000 м метель 9/6 600 м
[Cb cap Ac trans]
-9.7 -9.8 99 -20 -20 1008.2 1004.9 -9.7 36
06 19.04 СЗ 8-10
{14}
4000 м метель 10/10 570 м
[Sc]
-8.8 -9.1 98 -18 -18 1009.7 1006.4 -10.8
09 19.04 СЗ 8-11
{11}
4000 м сильный позёмок 10/10 500 м
[Sc]
-8.2 -8.6 97 -18 -18 1011.6 1008.3
12 19.04 СЗ 8-11
{12}
2000 м слаб. ливневой снег {метель} 10/10 480 м
[Cb cap]
-9.5 -10.1 95 -19 -19 1013.7 1010.4
15 19.04 СЗ 8
{11}
2000 м слаб. ливневой снег {метель} 10/10 540 м
[Cb cap]
-10.4 -11.0 95 -20 -20 1014.4 1011.0 -8.2 0.2
18 19.04 С 4
{10}
2000 м слаб. ливневой снег {метель} 10/6 630 м
[Cb cap Ac trans]
-12.9 -13.3 97 -20 -20 1015.4 1012.0
21 19.04 С 3 4000 м дымка {ливн. осадки} 3/0
[Ci fib]
-15.7 -16.1 97 -22 -22 1015.8 1012.4
00 20.04 СЗ 2 1000 м дымка {ливн. осадки} 3/3 200 м
[St]
-17.4 -18.1 94 -23 -23 1015.8 1012.4
03 20.04 штиль 0 1000 м дымка 3/0
[Cs]
-15.6 -16.1 96 -16 -13 1015.5 1012.1 -17.8 0.0 38
06 20.04 ЮВ 2 2000 м дымка 8/0
[Ci fib]
-15.7 -16.4 94 -21 -16 1015.1 1011.7
09 20.04 Ю 4 4000 м дымка 9/0
[As op]
-10.6 -10.9 98 -18 -17 1013.9 1010.5
12 20.04 ЮВ 6 4000 м позёмок 10/8 930 м
[Sc Ac As]
-9.1 -9.1 100 -18 -18 1011.7 1008.4
15 20.04 Ю 7
{10}
4000 м позёмок 10/10 420 м
[Cb cap]
-6.6 -6.6 100 -15 -15 1008.8 1005.5 -6.6
18 20.04 З 7-10
{10}
2000 м слаб. ливневой снег {метель} 10/10 300 м
[Cb cap]
-1.0 -1.0 100 -9 -9 1006.2 1003.0
21 20.04 ЮЗ 8-10
{10}
2000 м слаб. ливневой снег {метель} 10/10 360 м
[Cb cap]
-1.8 -1.8 100 -10 -10 1003.8 1000.6
00 21.04 ЮЗ 7
{11}
2000 м слаб. ливневой снег {метель} 10/10 500 м
[Cb cap]
-1.9 -1.9 100 -10 -10 1001.3 998.1
03 21.04 ЮЗ 4 4000 м позёмок {ливн. осадки} 10/10 270 м
[Cb cap]
-1.2 -1.2 100 -7 -7 1000.2 997.0 -7.5 0.7 40
06 21.04 З 6 1000 м в посл. час туман {ливн. осадки} 10/10 300 м
[St]
-0.3 -0.3 100 -7 -7 1000.8 997.7
09 21.04 З 6 1000 м дымка 10/10 700 м
[Sc]
-0.9 -0.9 100 -8 -8 1001.9 998.7
12 21.04 З 7 1000 м дымка 10/10 600 м
[Sc]
-0.9 -0.9 100 -9 -9 1003.3 1000.1
15 21.04 З 5 500 м туман ?/? -1.1 -1.1 100 -8 -8 1003.1 999.9 -0.2
18 21.04 ЮЗ 5 500 м туман ?/? -0.7 -0.7 100 -7 -7 1001.8 998.6
21 21.04 ЮЗ 8-10
{10}
2000 м слаб. ливневой снег {туман} 10/10 300 м
[Cb cap]
-0.5 -0.5 100 -8 -8 999.5 996.3
00 22.04 Ю 10-11
{11}
2000 м слаб. ливневой снег {туман} 10/10 300 м
[Cb cap]
-0.2 -0.2 100 -9 -9 995.4 992.2
03 22.04 З 11-14
{14}
2000 м дымка {ливн. осадки} 10/10 270 м
[St]
+0.2 +0.2 100 -9 -9 992.3 989.2 -1.3 0.4 40

 

Местоположение метеостанции Марресаля (Ямало-Ненецкий АО, Россия): широта 69.71 долгота 66.80 высота над уровнем моря 26 м.

В архиве по умолчанию представлена погода в Марресале за последнюю неделю. Архивные данные за месяц целиком и за предыдущие месяцы, начиная с января 2011 года, Вы можете получить, выбрав интересующий диапазон дат из раскрывающегося списка и нажав кнопку "Ввод!".


*Определитесь, кто Вы:
робот инопланетянин человек

Внимание! Время в таблицах - всемирное. Для получения местного времени необходимо прибавить поправку, которая равна 5 ч.

Смотрите также архив погоды в соседних городах и на ближайших метеорологических станциях:

Погода в Усть-Каре (Ненецкий АО, Россия) (89 км)
Погода в Амдерме (Ненецкий АО, Россия) (197 км)
Погода в Сеяхе (Ямало-Ненецкий АО, Россия) (224 км)
Погода на Мысе Белый Нос (Ненецкий АО, Россия) (255 км)
Погода в Тамбее (Ямало-Ненецкий АО, Россия) (270 км)
Погода в Воркуте (Коми, Россия) (273 км)
Погода в Имени Федорова (Ненецкий АО, Россия) (304 км)
Погода в Елецкой (Коми, Россия) (316 км)
Погода в Белоярске (Ямало-Ненецкий АО, Россия) (321 км)
Погода в Харпе (Ямало-Ненецкий АО, Россия) (326 км)

Пояснения к столбцам:

Ветер - указаны скорость ветра в м/с - средняя за 10 мин, порывы в срок и между сроками (в фигурных скобках) и направление, откуда дует ветер: С - северный, СВ - северо-восточный, В - восточный, ЮВ - юго-восточный, Ю - южный, ЮЗ - юго-западный, З - западный, СЗ - северо-западный.
Видимость - горизонтальная дальность видимости в метрах или километрах. При видимости от 1 до 10 км при отсутствии осадков обычно наблюдается дымка, при ухудшении видимости до 1 км и менее - туман. В сухую погоду видимость может ухудшаться дымом, пылью или мглою.
Явления - указаны атмосферные явления, наблюдавшиеся в срок или в последний час перед сроком; фигурными скобками обозначены явления, наблюдавшиеся между сроками (за 1-3 часа до срока); квадратными скобками обозначены град или гололедные отложения с указанием их диаметра в мм.
Облачность - указаны через наклонную черту общая и нижняя облачность в баллах и высота нижней границы облаков в метрах; квадратными скобками обозначены формы облаков: Ci - перистые, Cs - перисто-слоистые, Cc - перисто-кучевые, Ac - высококучевые, As - высокослоистые, Sc - слоисто-кучевые, Ns - слоисто-дождевые, Cu - кучевые, Cb - кучево-дождевые. Подробнее классификацию облаков см. в Атласе облаков (PDF).
T - Температура воздуха - температура, измеренная на высоте 2 м над землей.
Td - Температура точки росы - температура, при понижении до которой содержащийся в воздухе водяной пар достигнет насыщения.
f - Относительная влажность воздуха - влажноcть воздуха, измеренная на высоте 2 м над землей.
Te - Эффективная температура - температура, которую ощущает одетый по сезону человек в тени. Характеристика душности погоды. При расчете учитывается влияние влажности воздуха и скорости ветра на теплоощущения человека.
Tes - Эффективная температура на солнце - температура, которую ощущает человек, с поправкой на солнечный нагрев. Характеристика знойности погоды. Зависит от высоты солнца над горизонтом, облачности и скорости ветра. Ночью, в пасмурную погоду, а также при ветре 12 м/с и более поправка равна нулю.
P - Атмосферное давление - приведенное к уровню моря атмосферное давление.
Po - Атмосферное давление - измеренное на уровне метеостанции атмосферное давление.
Tmin - Минимальная температура - минимум температуры воздуха на высоте 2 м над землей.
Tmax - Максимальная температура - максимум температуры воздуха на высоте 2 м над землей.
R - Количество осадков - Количество выпавших осадков за период времени, мм. При наведении курсора мыши на число - период времени, за который выпало указанное количество осадков.
R24 - Количество осадков - Количество выпавших осадков за 24 часа, мм.
S - Снежный покров - Высота снежного покрова, см. При наведении курсора мыши на число - состояние снежного покрова и степень покрытия местности в баллах.